Temperature
-2 -2 -2 -2 -1 -1 -1 -1 -0 -0 -0 0 0 1 1 1 1 1 1 1 2 2 2 2 3 3 3 3 3 4 4 4 4 4 4 5 5 5 5 5 5 5 5
-3 -3 -3 -2 -2 -2 -2 -1 -1 -1 -1 -0 -0 0 0 1 1 1 1 1 1 1 1 2 2 2 2 2 3 3 3 3 4 4 4 4 4 4 4 4 5 5 5
-4 -4 -3 -3 -3 -2 -2 -2 -2 -1 -1 -1 -1 -0 -0 0 0 0 0 0 0 1 1 1 1 2 2 2 2 2 3 3 3 3 3 3 3 4 4 4 4 4 4
-4 -4 -4 -4 -3 -3 -3 -3 -2 -2 -2 -1 -1 -1 -1 -0 -0 -0 -0 -0 -0 0 0 1 1 1 1 1 2 2 2 2 2 3 3 3 3 3 3 3 3 3 4
-5 -5 -5 -4 -4 -4 -4 -3 -3 -3 -2 -2 -2 -1 -1 -1 -1 -1 -1 -1 -1 -0 -0 0 0 1 1 1 1 1 2 2 2 2 2 2 2 2 2 3 3 3 3
-6 -5 -5 -5 -5 -5 -4 -4 -4 -3 -3 -3 -2 -2 -2 -1 -1 -1 -1 -1 -1 -1 -1 -0 -0 0 0 1 1 1 1 1 2 2 2 2 2 2 2 2 2 2 2
-6 -6 -6 -6 -6 -5 -5 -5 -5 -4 -4 -4 -3 -3 -2 -2 -2 -1 -1 -2 -1 -1 -1 -1 -1 -0 -0 0 0 1 1 1 1 1 2 2 2 2 2 2 2 2 2
-7 -7 -7 -6 -6 -6 -6 -6 -6 -5 -5 -4 -4 -3 -3 -2 -2 -2 -2 -2 -2 -2 -1 -1 -1 -1 -0 -0 -0 0 0 0 0 1 1 1 1 1 1 1 1 1 1
-7 -7 -7 -7 -7 -7 -7 -6 -6 -6 -6 -5 -5 -4 -4 -3 -3 -3 -2 -2 -2 -2 -2 -1 -1 -1 -1 -1 -0 -0 -0 -0 0 0 0 0 1 1 1 0 0 0 1
-8 -8 -8 -8 -8 -8 -7 -7 -7 -7 -6 -6 -5 -5 -4 -4 -3 -3 -3 -3 -3 -2 -2 -2 -2 -1 -1 -1 -1 -1 -1 -0 -0 -0 -0 -0 0 0 0 0 0 0 -0
-8 -8 -8 -8 -8 -8 -8 -8 -7 -7 -7 -6 -6 -6 -5 -5 -4 -4 -3 -3 -3 -3 -3 -2 -2 -2 -2 -2 -2 -1 -1 -1 -1 -1 -1 -0 -0 -0 -0 -0 -0 -0 -0
-9 -9 -8 -8 -8 -8 -8 -8 -8 -7 -7 -7 -6 -6 -6 -5 -5 -4 -4 -4 -3 -3 -3 -3 -3 -2 -2 -2 -2 -2 -2 -1 -1 -1 -1 -1 -1 -1 -1 -1 -1 -1 -1
-9 -9 -9 -9 -9 -9 -8 -8 -8 -8 -8 -7 -7 -7 -6 -6 -5 -5 -4 -4 -4 -4 -3 -3 -3 -3 -3 -3 -2 -2 -2 -2 -2 -2 -2 -1 -1 -1 -1 -1 -1 -1 -1
-10 -9 -9 -9 -9 -9 -9 -9 -9 -8 -8 -8 -8 -7 -7 -7 -6 -6 -5 -5 -4 -4 -4 -4 -4 -3 -3 -3 -3 -3 -2 -2 -2 -2 -2 -2 -2 -2 -2 -2 -2 -2 -2
-10 -10 -10 -10 -10 -10 -9 -9 -9 -9 -9 -8 -8 -8 -8 -7 -7 -6 -6 -6 -5 -5 -5 -5 -4 -4 -4 -4 -4 -3 -3 -3 -3 -3 -2 -2 -2 -2 -2 -2 -2 -2 -2
-11 -10 -11 -11 -10 -10 -10 -9 -9 -9 -9 -8 -8 -8 -8 -8 -7 -7 -7 -6 -6 -6 -5 -5 -5 -5 -5 -4 -4 -4 -4 -4 -3 -3 -3 -3 -3 -3 -3 -3 -3 -3 -3
-11 -11 -11 -11 -11 -11 -10 -10 -10 -9 -9 -9 -8 -8 -8 -8 -8 -7 -7 -6 -6 -6 -6 -6 -6 -6 -5 -5 -5 -5 -4 -4 -4 -4 -4 -4 -3 -3 -3 -3 -3 -3 -3
-11 -11 -11 -11 -11 -11 -11 -11 -10 -10 -10 -9 -9 -9 -8 -8 -8 -8 -7 -7 -7 -6 -7 -6 -6 -6 -6 -6 -5 -5 -5 -5 -5 -4 -4 -4 -4 -4 -4 -4 -4 -4 -4
-12 -12 -12 -12 -11 -11 -11 -11 -11 -11 -11 -10 -9 -9 -9 -8 -8 -8 -8 -8 -7 -7 -7 -7 -7 -6 -6 -6 -6 -6 -6 -5 -5 -5 -5 -5 -5 -5 -5 -5 -5 -5 -4
-12 -12 -12 -12 -12 -11 -11 -11 -11 -11 -11 -11 -10 -10 -9 -9 -9 -8 -8 -8 -8 -8 -7 -7 -7 -7 -7 -6 -6 -6 -6 -6 -6 -6 -6 -5 -5 -5 -5 -5 -5 -5 -5
-12 -12 -12 -12 -12 -12 -12 -12 -12 -12 -11 -11 -11 -10 -10 -10 -9 -9 -9 -8 -8 -8 -8 -8 -7 -7 -7 -7 -7 -7 -6 -6 -6 -6 -6 -6 -6 -6 -6 -6 -6 -5 -5
-13 -13 -13 -13 -12 -12 -12 -12 -12 -12 -12 -12 -11 -11 -11 -10 -10 -9 -9 -9 -9 -8 -8 -8 -8 -8 -7 -7 -7 -7 -7 -7 -7 -6 -6 -6 -6 -6 -6 -6 -6 -6 -6
-13 -13 -13 -13 -13 -12 -12 -12 -12 -12 -12 -12 -12 -11 -11 -11 -10 -10 -9 -9 -9 -9 -9 -8 -8 -8 -8 -8 -8 -7 -7 -7 -7 -7 -7 -7 -7 -7 -6 -6 -6 -6 -6
-13 -13 -13 -13 -13 -13 -13 -13 -12 -12 -12 -12 -12 -12 -12 -11 -11 -10 -10 -10 -9 -9 -9 -9 -9 -8 -8 -8 -8 -8 -8 -7 -7 -7 -7 -7 -7 -7 -7 -7 -7 -7 -7
-13 -13 -13 -13 -13 -13 -13 -13 -13 -13 -12 -12 -12 -12 -12 -12 -11 -11 -11 -10 -10 -10 -9 -9 -9 -9 -9 -8 -8 -8 -8 -8 -8 -7 -7 -7 -7 -7 -7 -7 -7 -7 -7
-14 -14 -14 -14 -14 -13 -13 -13 -13 -13 -13 -13 -12 -12 -12 -12 -12 -11 -11 -11 -10 -10 -10 -10 -9 -9 -9 -9 -9 -8 -8 -8 -8 -8 -8 -8 -8 -8 -8 -8 -8 -8 -8
Wind_Speed
9 10 10 10 10 9 8 8 8 8 8 7 7 7 7 7 6 6 7 7 8 7 7 7 8 6 5 5 5 5 6 6 6 5 4 4 5 5 4 5 5 5 5
9 10 10 10 10 9 9 9 9 8 8 8 7 7 6 6 6 7 7 7 8 8 8 8 8 6 7 6 5 6 6 6 6 6 4 4 5 5 5 5 4 4 5
10 10 10 10 10 10 10 9 9 8 8 8 7 7 7 6 7 7 7 8 8 8 9 9 9 8 8 7 7 7 6 5 5 6 5 4 4 4 4 4 5 4 4
10 10 11 11 10 10 10 9 9 9 8 8 8 7 7 7 7 7 7 8 8 8 8 9 9 8 8 8 7 8 6 6 6 6 5 4 4 4 4 4 4 4 3
10 11 11 11 11 10 10 10 9 9 9 8 8 8 7 6 7 7 8 8 8 8 8 8 8 8 9 9 7 8 7 6 6 6 5 5 5 4 5 4 5 4 4
10 11 11 11 11 10 10 10 10 9 9 9 8 8 8 6 8 10 9 8 8 9 8 8 7 8 9 10 10 11 10 8 8 7 6 7 7 6 5 5 4 4 4
11 11 11 11 11 11 10 10 10 10 10 9 9 8 9 9 10 10 10 7 8 8 8 8 7 7 8 8 8 9 10 10 11 9 9 9 8 8 6 6 7 6 5
11 11 11 11 11 11 11 10 10 9 9 9 9 9 9 9 10 11 11 9 8 8 8 8 8 8 7 7 7 7 8 8 9 8 8 8 7 6 7 6 5 5 4
11 12 12 11 12 11 11 11 10 10 10 9 9 9 9 10 10 11 10 8 7 8 8 8 8 8 8 8 7 7 7 6 7 8 7 7 7 7 6 4 5 4 4
12 13 12 12 12 11 11 11 10 9 10 9 9 9 9 9 10 10 9 6 7 6 6 6 8 8 8 8 7 7 8 6 5 4 4 5 5 7 8 8 7 6 4
13 13 12 11 11 11 11 10 10 9 9 9 9 8 8 9 10 10 10 6 6 6 5 5 5 7 8 8 8 7 7 6 5 5 4 4 4 4 5 6 6 6 6
13 12 11 11 10 10 10 10 9 9 8 8 8 8 7 7 9 9 10 9 8 6 6 5 5 7 7 7 7 6 6 5 4 5 4 4 4 4 4 4 4 4 4
13 12 12 12 10 10 9 9 9 8 7 7 7 7 7 7 7 10 10 10 9 6 5 6 7 6 6 6 6 5 4 4 4 4 5 5 4 4 3 2 2 2 1
13 12 11 11 10 10 8 7 7 7 7 7 7 7 7 7 6 6 6 6 6 5 4 4 4 5 4 4 4 3 3 3 4 4 4 4 3 3 3 3 3 3 2
12 11 11 10 10 9 8 8 8 8 8 8 8 7 7 7 8 10 7 5 4 4 3 2 2 2 2 2 2 2 2 2 2 3 3 3 3 3 3 3 2 2 3
11 10 9 9 9 8 8 9 10 10 12 13 12 10 8 10 11 10 9 8 7 4 2 2 2 2 2 2 2 2 2 2 2 2 3 3 4 4 3 2 2 3 4
10 10 9 9 8 8 8 9 9 10 11 12 12 11 11 11 10 9 8 7 6 3 2 2 3 3 2 3 2 2 2 2 2 2 3 3 3 3 3 3 3 3 3
11 11 10 8 8 8 9 9 8 8 9 8 9 11 11 11 10 8 7 5 4 3 2 3 3 3 3 3 3 2 2 2 2 2 2 3 3 3 3 3 4 4 4
10 8 8 8 8 8 8 8 8 8 8 8 7 8 10 10 9 8 6 3 3 3 3 3 3 3 3 3 3 2 2 2 2 2 2 2 3 3 3 3 3 4 3
9 12 11 9 8 8 8 7 7 7 7 7 7 7 7 7 5 5 4 4 3 3 3 3 3 3 3 3 2 2 2 2 2 2 2 2 2 3 3 4 4 3 3
8 9 11 9 8 8 7 7 7 7 7 6 6 7 9 6 5 5 4 3 3 3 3 3 3 3 3 3 2 3 3 2 2 2 2 2 2 2 2 2 2 3 3
8 8 8 8 7 7 7 7 6 7 7 8 7 7 9 6 5 5 4 4 4 4 3 3 3 3 3 3 3 3 3 3 2 2 2 2 2 2 2 2 2 2 2
7 8 8 8 7 9 8 6 7 7 7 7 7 6 6 5 5 5 5 5 4 4 4 4 3 3 3 3 3 3 3 3 3 3 3 2 2 2 2 2 3 2 2
7 8 8 8 7 7 7 7 6 6 7 6 6 6 6 5 5 6 5 4 4 4 4 4 4 4 4 4 3 3 3 3 3 3 3 3 3 2 2 2 2 3 3
7 7 7 7 7 7 7 7 7 6 6 6 6 6 6 5 5 5 5 4 5 4 5 5 4 4 4 4 4 3 3 3 3 3 3 3 3 3 3 3 3 3 3
7 7 7 6 6 6 6 6 7 7 6 6 6 6 6 5 5 5 5 4 4 4 4 4 5 5 5 4 3 3 2 2 2 3 3 3 3 3 3 3 3 3 3
Wind_Direction
327 323 321 321 320 318 316 312 306 301 298 287 283 281 276 259 250 247 247 245 243 246 246 241 240 240 238 238 240 240 241 240 244 251 245 232 230 235 234 238 234 232 223
322 319 317 317 317 317 314 313 310 303 298 291 282 277 274 267 252 245 245 245 244 244 243 243 241 236 235 235 233 235 238 238 236 239 242 236 236 231 235 238 238 234 231
319 316 315 316 316 315 314 313 311 307 302 296 286 278 273 269 257 246 242 243 243 242 241 240 240 234 234 233 230 231 234 234 233 233 235 241 243 228 232 243 238 233 230
318 315 314 314 313 312 312 310 309 307 303 297 292 283 276 271 262 249 244 244 245 245 243 240 239 237 234 233 231 229 227 228 226 222 222 227 239 236 227 230 233 230 230
317 314 312 312 311 310 309 308 309 309 306 303 295 286 281 273 262 253 249 246 246 247 247 244 241 241 241 236 232 226 219 220 219 217 216 223 227 224 226 232 233 229 235
314 311 311 310 309 308 309 309 309 308 306 305 296 287 283 278 280 274 261 249 247 246 247 247 247 241 241 245 237 228 222 219 217 218 220 220 224 227 230 222 225 225 238
312 310 309 309 308 307 307 306 304 304 305 304 297 289 284 284 286 285 274 259 250 247 245 243 244 241 241 241 234 229 229 230 229 225 223 224 223 221 218 223 227 229 238
311 311 312 310 308 307 304 302 303 302 300 300 298 290 288 287 288 286 282 263 255 249 245 242 239 239 238 238 231 231 231 231 232 230 230 231 229 221 219 226 231 244 247
312 312 312 310 306 304 301 301 300 300 298 297 296 294 291 292 291 288 287 266 257 251 250 247 243 239 237 239 233 228 232 239 238 230 230 224 219 214 210 207 206 218 234
313 311 310 308 304 300 297 297 297 295 294 296 295 293 291 291 293 292 291 273 261 256 255 251 246 242 239 235 230 225 227 231 227 222 216 212 213 209 209 218 215 216 221
311 309 308 307 304 302 299 297 295 294 292 292 294 295 294 293 294 295 296 281 263 257 255 253 249 245 242 241 244 237 231 227 221 216 214 210 210 210 215 222 222 215 214
312 311 310 309 307 304 302 300 297 293 291 293 296 299 300 300 297 293 294 289 281 262 256 256 254 252 248 248 248 245 237 224 215 207 206 209 212 214 216 218 220 221 223
312 312 311 309 307 305 302 301 299 296 291 292 294 297 302 305 303 298 294 293 289 273 263 263 261 255 253 249 245 235 224 212 208 207 210 215 217 212 203 198 194 172 154
313 313 312 310 310 310 305 301 299 298 295 294 294 295 298 302 304 304 300 294 292 280 269 262 255 248 247 245 234 230 233 225 218 218 216 214 204 197 196 197 198 183 178
314 313 312 310 308 309 306 301 298 293 294 294 292 292 293 295 301 308 306 299 293 281 279 270 268 258 244 238 238 241 241 233 226 220 209 204 202 196 197 195 194 188 196
314 315 313 311 310 309 309 308 304 299 302 301 301 298 294 296 305 307 307 307 304 288 269 254 260 261 248 249 248 249 249 238 230 222 214 206 203 199 196 195 187 187 191
310 311 310 310 309 310 310 310 311 311 307 305 305 304 303 309 311 310 310 307 302 281 260 256 259 258 255 256 252 246 250 253 242 226 217 209 203 200 196 196 190 190 194
310 308 308 307 308 308 307 306 305 307 310 312 311 307 309 312 314 316 316 309 297 282 267 261 261 260 255 252 250 250 250 245 238 234 225 211 199 196 197 200 198 198 197
312 313 312 310 308 307 306 305 304 304 305 307 311 315 315 314 313 317 317 302 295 287 284 278 273 269 263 258 255 249 245 240 237 236 226 216 207 198 199 202 199 194 198
311 314 316 313 311 311 311 310 309 308 306 306 308 313 319 317 311 313 311 305 296 290 291 293 288 281 270 261 257 251 249 247 238 233 226 217 212 201 196 198 198 194 197
312 313 317 314 313 313 312 310 311 312 312 310 308 311 322 318 314 312 309 309 305 296 295 292 288 283 270 260 251 249 248 245 240 233 227 215 201 193 188 191 192 188 179
312 313 314 314 313 313 311 309 309 308 310 310 312 316 323 322 318 315 316 316 313 306 302 292 285 282 273 259 247 242 238 235 233 229 220 202 191 185 183 185 181 179 172
311 312 312 313 312 314 314 311 310 308 309 310 312 315 318 316 316 315 315 315 316 314 310 300 291 289 290 281 264 246 235 236 233 223 213 201 193 194 190 184 182 183 186
310 310 311 313 315 315 315 313 311 311 312 313 313 313 313 312 313 315 314 314 314 313 312 308 298 293 297 295 284 263 249 241 228 217 211 196 196 201 194 188 191 191 189
314 314 312 312 314 315 316 316 314 312 312 313 314 315 316 315 315 317 316 316 316 313 317 318 312 307 304 302 297 281 258 241 221 210 202 200 191 191 188 191 195 190 190
316 315 313 312 311 312 313 314 316 317 316 315 315 315 315 315 314 315 313 311 312 315 317 318 321 320 314 308 305 304 283 249 223 216 206 199 186 191 191 195 193 195 194
Height
1500 1498 1495 1492 1489 1487 1484 1482 1480 1479 1478 1477 1476 1476 1475 1475 1475 1475 1476 1477 1478 1479 1480 1481 1482 1483 1484 1486 1487 1488 1490 1491 1491 1491 1493 1494 1495 1496 1497 1498 1499 1500 1501
1498 1495 1491 1489 1486 1483 1481 1478 1476 1474 1473 1472 1472 1471 1470 1470 1470 1470 1471 1472 1473 1473 1474 1475 1476 1478 1479 1480 1481 1482 1484 1485 1486 1486 1487 1488 1489 1491 1492 1493 1494 1494 1495
1495 1491 1488 1485 1482 1479 1476 1474 1472 1470 1469 1467 1467 1466 1465 1465 1465 1465 1465 1466 1467 1468 1469 1469 1470 1472 1473 1474 1476 1477 1479 1480 1481 1482 1482 1483 1484 1486 1487 1488 1489 1489 1490
1491 1488 1484 1481 1478 1475 1473 1471 1468 1466 1464 1462 1461 1461 1460 1460 1460 1460 1460 1461 1462 1462 1463 1464 1464 1465 1466 1468 1470 1471 1473 1474 1476 1476 1477 1478 1479 1480 1482 1482 1483 1484 1485
1488 1484 1481 1478 1475 1472 1469 1467 1464 1462 1460 1458 1456 1455 1455 1455 1454 1454 1455 1455 1456 1456 1457 1457 1458 1459 1461 1463 1464 1465 1467 1469 1470 1470 1471 1472 1473 1475 1476 1477 1478 1479 1480
1484 1481 1478 1475 1471 1468 1465 1463 1460 1457 1456 1453 1452 1451 1450 1449 1449 1449 1450 1450 1451 1451 1451 1452 1452 1454 1455 1457 1458 1459 1461 1463 1464 1465 1465 1466 1467 1469 1471 1472 1474 1474 1475
1481 1477 1474 1471 1467 1464 1461 1459 1456 1453 1451 1449 1448 1446 1445 1444 1444 1444 1444 1445 1445 1446 1446 1446 1447 1448 1449 1451 1452 1453 1455 1456 1458 1460 1460 1460 1462 1464 1466 1467 1468 1469 1470
1477 1474 1470 1466 1463 1460 1457 1455 1452 1449 1447 1445 1443 1441 1440 1439 1439 1439 1439 1440 1440 1440 1440 1441 1441 1442 1443 1445 1446 1447 1448 1450 1452 1453 1454 1455 1457 1459 1460 1462 1463 1464 1465
1474 1470 1466 1463 1459 1456 1453 1451 1448 1445 1443 1441 1439 1437 1435 1434 1434 1434 1434 1434 1434 1434 1434 1435 1436 1436 1438 1439 1441 1442 1443 1444 1446 1447 1448 1450 1451 1453 1455 1457 1458 1459 1459
1470 1466 1462 1459 1456 1453 1450 1447 1444 1442 1439 1437 1435 1433 1431 1430 1430 1430 1430 1429 1428 1428 1429 1429 1430 1431 1432 1434 1435 1436 1437 1438 1439 1441 1442 1444 1445 1447 1449 1451 1452 1454 1454
1466 1462 1458 1455 1452 1449 1446 1443 1440 1438 1435 1433 1431 1429 1428 1426 1426 1425 1425 1424 1424 1423 1423 1424 1424 1426 1427 1428 1429 1430 1431 1433 1434 1435 1436 1438 1440 1442 1443 1445 1446 1448 1449
1462 1458 1454 1451 1448 1445 1442 1439 1436 1434 1431 1429 1427 1425 1423 1422 1421 1420 1420 1420 1420 1419 1419 1419 1420 1421 1421 1422 1424 1425 1426 1427 1428 1430 1431 1432 1434 1436 1438 1439 1441 1442 1444
1458 1454 1451 1447 1444 1441 1438 1435 1432 1430 1428 1425 1423 1421 1419 1418 1417 1416 1416 1415 1415 1415 1415 1415 1416 1416 1417 1418 1418 1419 1421 1422 1422 1424 1425 1427 1429 1431 1432 1434 1435 1437 1438
1455 1451 1447 1444 1440 1437 1434 1431 1429 1426 1424 1422 1420 1418 1416 1415 1413 1412 1412 1411 1411 1411 1411 1411 1411 1411 1412 1413 1414 1414 1416 1417 1418 1419 1420 1422 1424 1425 1427 1428 1430 1431 1433
1452 1448 1444 1441 1437 1434 1430 1428 1425 1423 1422 1420 1418 1416 1414 1411 1410 1410 1408 1407 1407 1407 1407 1407 1407 1407 1408 1408 1409 1410 1411 1412 1413 1415 1416 1417 1419 1420 1421 1423 1425 1426 1428
1449 1445 1441 1438 1434 1431 1427 1424 1421 1420 1418 1416 1414 1413 1410 1409 1407 1406 1405 1404 1404 1404 1404 1403 1403 1404 1404 1405 1405 1406 1407 1408 1409 1410 1412 1413 1414 1415 1416 1418 1420 1421 1423
1446 1443 1439 1435 1431 1428 1425 1421 1418 1415 1414 1412 1410 1408 1407 1405 1404 1402 1402 1401 1401 1401 1401 1400 1400 1401 1401 1402 1402 1403 1403 1404 1405 1407 1408 1409 1410 1411 1412 1414 1415 1417 1419
1444 1440 1436 1432 1429 1426 1423 1419 1416 1413 1410 1407 1406 1405 1403 1401 1400 1399 1399 1398 1398 1398 1398 1398 1398 1398 1399 1399 1399 1400 1400 1401 1402 1403 1404 1405 1406 1407 1408 1409 1411 1413 1415
1441 1437 1433 1430 1426 1423 1420 1417 1414 1411 1408 1405 1403 1401 1400 1399 1397 1397 1396 1396 1395 1395 1395 1395 1395 1396 1396 1396 1396 1397 1397 1398 1399 1399 1400 1401 1402 1404 1405 1406 1408 1409 1411
1437 1434 1430 1427 1424 1421 1418 1415 1412 1409 1406 1403 1401 1399 1398 1396 1394 1394 1394 1393 1393 1393 1393 1393 1393 1393 1394 1394 1394 1394 1395 1395 1396 1396 1397 1398 1399 1400 1401 1403 1404 1406 1407
1435 1431 1428 1425 1422 1419 1416 1413 1410 1407 1405 1402 1400 1398 1397 1395 1393 1393 1392 1392 1392 1391 1391 1391 1391 1391 1391 1391 1391 1392 1392 1393 1393 1393 1394 1395 1396 1397 1399 1400 1401 1403 1404
1433 1429 1426 1423 1419 1417 1414 1411 1409 1406 1403 1401 1398 1396 1395 1393 1392 1391 1391 1390 1390 1390 1389 1389 1389 1389 1389 1389 1389 1389 1390 1390 1391 1391 1392 1393 1394 1395 1396 1397 1398 1400 1402
1431 1427 1424 1421 1417 1415 1412 1409 1407 1404 1402 1399 1397 1395 1393 1392 1390 1390 1389 1389 1388 1388 1387 1386 1386 1386 1386 1386 1386 1387 1387 1388 1389 1389 1390 1390 1391 1392 1393 1394 1396 1397 1399
1429 1425 1422 1419 1415 1413 1410 1407 1405 1402 1400 1398 1395 1393 1392 1390 1389 1388 1387 1387 1386 1385 1384 1384 1383 1383 1383 1383 1384 1384 1385 1386 1387 1387 1388 1389 1389 1390 1391 1392 1393 1395 1396
1426 1423 1420 1417 1414 1411 1408 1405 1403 1401 1398 1396 1394 1392 1391 1389 1388 1386 1385 1384 1383 1383 1382 1381 1381 1381 1381 1381 1381 1382 1383 1383 1384 1385 1386 1386 1387 1388 1389 1390 1391 1392 1394
1424 1421 1418 1415 1412 1409 1406 1403 1401 1399 1397 1395 1393 1391 1389 1388 1386 1385 1383 1382 1381 1380 1379 1379 1379 1379 1379 1379 1379 1380 1380 1381 1382 1383 1383 1384 1385 1385 1387 1388 1389 1390 1391